Voltar ao catálogo

STARLINK-31120

AtivoComunicaçõesVLEO
NORAD 58778·PAYLOAD·🇺🇸 United States

Lançado Jan 14, 2024 de Vandenberg Space Force Base

Loading…

Próximas Passagens (próximas 24 horas)

TLE

AtualizadoSource: CelesTrak SupGP

Época: Sep 14, 2026, 21:12 UTC

1 58778C 24011P   26257.88381944  .00026732  00000+0  78954-3 0  2572
2 58778  53.1585 212.0515 0001478  93.5519  14.3885 15.34387732    15

Acompanhe STARLINK-31120 em tempo real com AllMySat

Download on the App Store